Terminal Aerodrome Forecast
Issued by NWS Quad Cities IA IL

Home | Current Version | Previous Version | Text Only | Print | Product List | Glossary On
Versions: 1 2 3 4 5 6 7 8 9 10 11 12 13 14 15 16 17 18 19 20 21 22 23 24 25 26
000
FTUS43 KDVN 241904 AAA
TAFMLI
TAF AMD
KMLI 241904Z 2419/2518 24018G26KT P6SM BKN130
     FM242300 27008KT P6SM VCSH SCT035 OVC080
     FM250100 36006KT 6SM -RA BR VCTS SCT017 OVC035CB
     FM250400 06010KT 4SM -RA BR OVC012
     FM251000 07013KT 3SM -RA BR OVC008
     FM251400 07013G19KT 3SM -RA BR OVC008=

USA.gov is the U.S. government's official web portal to all federal, state and local government web resources and services.